Vorticity
7 7 7 7 7 8 8 9 9 8 8 7 7 6 6 6 7 8 7 8 8 8 8 8 8 7 8 8 8 7 7 8 7 7 8 10 9 8 11 11 11 13 11 13 14 16 15 12 11 10 12 11 9 10 8 9 8 7 9 10 10 10 23 29 12 1 5 9 -4 -21 -8 9 6 9 9 4 5 3 3 2 1 4 4 9 17 14 13 14
5 6 8 8 8 8 8 8 8 8 8 8 7 7 7 7 7 8 7 8 8 8 8 8 8 8 8 8 8 7 7 7 7 7 9 9 9 10 12 11 12 12 12 14 15 16 14 12 13 13 13 11 9 8 8 8 7 8 9 10 7 12 32 23 2 10 12 8 6 -19 -18 9 8 12 14 4 9 7 2 9 11 13 17 23 25 16 10 13
4 4 5 7 8 9 8 8 8 8 8 7 7 6 6 6 7 7 7 8 8 8 8 8 8 8 9 8 8 7 6 7 7 8 8 9 9 10 11 11 12 11 13 15 15 15 12 14 15 14 13 11 10 8 9 7 7 8 7 12 5 12 30 17 5 14 9 4 16 -4 -24 -3 9 18 20 4 7 7 4 12 11 11 20 25 19 12 9 10
8 7 6 5 6 7 8 8 8 7 7 7 6 6 6 6 6 7 7 8 8 8 8 8 8 8 9 8 8 6 6 7 7 7 8 9 10 10 10 11 12 11 14 15 14 14 13 16 14 12 11 10 10 9 10 8 9 8 7 11 3 14 26 11 7 12 12 4 6 4 -16 -7 12 17 16 6 2 -0 3 7 4 2 5 11 8 6 7 5
9 8 7 7 6 6 7 8 8 8 8 7 7 6 6 6 6 7 7 7 8 8 8 8 8 9 8 8 8 5 8 8 5 8 9 9 10 11 11 12 13 13 15 14 13 12 12 13 11 12 11 10 10 9 11 9 10 9 9 9 1 21 23 4 6 4 11 7 -7 -9 -10 0 9 12 13 5 -1 -2 5 4 7 14 3 2 6 3 5 5
8 9 8 7 6 6 6 7 8 8 8 7 7 6 6 6 6 6 7 7 7 8 8 8 8 8 9 8 8 6 8 7 7 10 9 10 10 11 12 12 13 12 12 10 11 13 12 12 11 12 10 10 11 9 11 9 10 8 10 9 4 26 17 -1 7 -2 4 13 1 -15 -12 5 3 12 18 1 -1 3 10 1 2 25 16 3 6 5 6 6
7 7 7 7 7 7 6 6 7 7 7 7 7 7 6 6 6 6 6 6 6 7 7 8 8 8 8 8 8 7 7 7 9 11 9 9 8 8 9 8 9 10 11 10 11 11 11 12 11 11 9 10 10 9 10 8 10 7 10 8 5 27 15 -1 5 -3 1 8 5 -10 -14 6 6 13 14 1 8 5 6 4 -3 18 22 6 5 6 5 6
9 8 7 6 7 7 6 6 6 6 6 7 7 7 6 6 6 5 5 6 6 7 7 8 8 8 8 8 8 7 7 7 8 9 9 10 9 9 8 8 8 9 11 10 10 9 10 12 11 12 10 11 10 9 9 8 10 6 10 7 7 27 15 2 4 -5 3 4 2 -2 -13 -5 4 10 4 -2 9 6 11 16 -1 2 15 9 3 6 5 5
10 9 9 8 8 7 7 7 7 7 7 7 7 6 7 6 5 5 5 6 6 7 7 8 7 8 9 8 8 8 7 6 7 8 11 13 11 9 7 9 9 10 11 9 8 9 9 10 11 11 9 11 10 9 9 8 9 6 8 7 8 25 14 -1 1 -4 4 5 -1 1 -7 -12 -7 5 7 0 -0 -1 9 15 2 -2 12 14 7 9 9 7
7 8 8 9 9 9 9 8 9 8 8 7 7 7 7 6 6 5 5 5 6 7 7 7 7 8 8 8 8 7 6 7 8 10 14 16 12 8 7 8 7 8 9 8 8 8 9 8 9 10 9 10 9 9 11 8 9 8 8 8 7 20 17 -1 -5 -4 2 7 1 -4 -3 -5 -9 -2 7 11 7 -1 -1 4 4 -1 6 12 10 11 9 6
7 7 8 8 8 9 9 9 9 9 9 8 8 8 7 6 6 5 5 5 6 6 6 6 7 8 8 9 7 6 8 9 10 12 15 14 10 8 8 7 7 6 6 7 7 6 9 9 7 10 10 10 10 8 10 9 10 9 9 10 7 14 22 7 -9 -10 -6 3 5 -2 -3 -3 -6 -3 5 16 19 13 10 9 11 9 6 9 13 14 7 3
6 6 7 8 8 9 9 9 9 9 9 8 8 8 7 7 6 5 5 5 6 6 6 6 7 8 8 9 7 6 10 11 10 13 14 12 11 9 6 7 9 7 5 4 4 4 7 10 9 9 9 10 11 9 8 8 8 8 9 10 9 12 22 17 -4 -11 -9 -5 -0 0 -1 -4 0 10 12 13 13 14 16 14 15 16 13 11 16 18 12 9
6 6 6 6 7 8 9 9 9 9 9 9 8 8 8 7 6 6 6 6 6 5 5 6 7 7 9 9 7 8 10 10 12 15 14 14 13 9 5 5 6 10 9 4 3 4 4 8 11 9 9 9 9 11 11 11 11 7 8 9 9 11 19 25 12 -4 -6 -4 -2 -1 -0 0 0 2 6 8 6 8 10 9 10 9 9 12 14 12 8 9
8 8 7 7 7 7 7 8 9 9 9 9 9 9 9 8 7 7 7 6 5 5 5 6 7 7 8 8 7 8 8 9 13 13 13 16 14 7 7 5 4 9 12 7 4 4 3 5 10 10 10 10 9 11 10 11 14 11 11 10 8 11 16 25 23 8 -2 -3 -2 -2 -0 2 -7 -14 3 15 8 8 8 5 10 9 9 12 12 10 6 4
8 8 8 8 8 8 8 8 9 9 10 10 9 9 9 9 8 7 7 7 5 5 5 6 7 7 6 8 9 8 9 11 11 11 15 22 18 5 4 5 3 7 14 13 7 3 4 4 7 10 10 10 9 8 8 9 10 11 12 11 10 12 14 18 22 20 11 2 -4 -5 -3 1 0 1 16 21 7 8 11 6 10 10 8 11 10 10 8 3
8 8 9 9 9 9 9 9 9 10 10 10 10 10 10 9 8 8 7 7 6 5 5 6 7 6 6 9 10 8 8 10 10 12 17 22 19 8 4 5 4 8 14 16 11 5 5 4 4 8 9 11 11 9 9 7 7 8 9 10 10 11 13 15 16 20 21 19 11 3 1 3 10 17 18 17 8 5 8 5 10 11 9 16 14 9 9 7
8 8 9 9 10 10 10 10 10 10 11 11 12 11 11 10 10 9 7 7 7 6 6 6 6 7 7 7 9 8 8 10 11 15 16 15 17 11 6 6 7 9 11 13 14 9 6 4 4 5 7 9 11 10 10 10 10 11 11 10 12 12 13 14 13 17 19 20 19 12 11 9 11 16 13 14 11 2 5 9 10 11 12 16 11 4 8 9
8 8 8 8 9 10 11 11 10 11 11 11 12 12 12 11 10 10 9 8 7 7 6 5 5 7 7 7 7 7 9 11 13 15 13 12 14 11 8 6 7 7 7 10 13 12 9 5 4 6 6 8 10 10 10 12 14 14 14 14 15 14 11 9 6 12 16 15 17 14 10 10 11 13 10 13 14 4 7 12 6 2 10 16 9 2 2 0
8 8 8 9 9 10 10 11 12 12 12 12 12 12 13 12 11 11 10 8 8 8 6 5 6 7 6 6 7 7 8 10 13 15 14 12 12 11 9 5 5 7 7 8 9 12 12 8 7 6 5 7 10 12 10 9 11 12 12 12 12 8 6 9 4 4 11 12 15 15 13 21 27 22 14 11 12 12 9 7 -1 -5 4 14 11 2 -3 -2
8 8 8 9 10 10 11 10 11 12 13 13 13 12 12 12 12 12 11 9 8 8 7 5 6 7 7 6 8 8 7 9 13 15 14 13 13 12 11 5 4 7 7 8 8 10 13 12 10 7 6 6 6 10 9 7 10 9 9 10 8 6 9 20 23 17 14 10 11 16 22 29 25 19 26 23 11 11 8 0 -3 -4 1 11 14 6 1 8
8 8 8 9 10 10 11 11 11 12 12 13 12 11 11 12 12 12 13 11 10 10 8 6 5 8 9 5 6 6 6 11 17 17 13 11 12 13 12 7 5 8 8 8 8 9 13 15 13 8 7 7 6 8 7 7 9 7 9 8 5 10 14 22 28 18 12 14 12 12 18 13 -5 -4 25 33 14 4 3 4 5 5 8 12 10 2 -3 -2
8 8 8 9 9 10 10 10 11 11 11 11 11 12 12 14 13 14 14 12 15 14 9 8 7 7 9 5 5 5 5 11 17 19 15 11 13 13 12 8 4 8 8 6 8 9 14 17 13 11 10 8 6 6 9 10 10 10 8 4 5 13 18 23 20 5 5 18 15 9 12 2 -17 -6 24 31 18 6 0 4 8 7 9 6 -3 -6 -5 -11
8 8 8 9 9 9 11 11 10 10 11 12 13 14 14 15 14 15 15 12 15 17 11 9 7 7 9 9 8 8 7 8 12 17 16 14 13 11 10 7 5 8 7 7 9 9 13 14 9 9 10 10 9 7 8 10 11 12 7 6 13 16 24 25 11 5 10 10 7 5 3 -3 -11 -4 15 22 12 0 -2 1 3 3 6 5 -2 -2 1 -5
8 8 8 8 9 10 11 11 11 10 11 12 13 13 14 16 15 14 15 11 11 17 16 9 8 9 8 6 5 7 9 9 11 15 15 15 13 9 8 6 4 8 8 8 10 10 11 11 10 11 9 9 11 10 9 9 11 13 8 13 20 20 29 20 0 13 17 -5 -3 6 -2 -2 3 -1 3 18 13 -6 -7 0 4 7 9 10 9 5 1 -4
8 8 8 8 9 9 10 10 11 10 11 12 12 13 15 16 15 12 14 14 11 15 18 10 8 9 6 5 5 6 8 9 12 13 12 14 14 11 9 7 5 6 8 9 10 12 10 9 10 12 13 11 8 9 11 10 11 12 10 19 27 22 21 12 1 17 17 -2 1 11 11 9 11 7 -0 13 22 3 -8 -2 4 8 6 1 2 1 -1 1
9 9 8 9 9 9 9 9 10 9 11 12 12 14 13 12 14 15 17 18 13 14 18 13 8 7 7 7 6 6 7 7 7 8 11 13 13 12 9 7 7 6 8 8 9 11 10 10 11 9 13 15 11 8 8 8 8 11 12 23 33 19 6 7 10 15 14 16 15 5 14 20 14 13 3 2 17 12 1 -1 -5 -2 1 -2 -1 0 -1 3
9 9 9 9 9 10 9 9 10 9 9 10 11 10 9 9 13 16 16 15 15 20 23 18 13 13 11 7 8 12 14 12 7 5 12 16 14 15 11 6 7 8 8 7 10 14 10 10 13 11 10 11 13 10 7 8 8 11 11 21 31 13 -2 5 9 11 7 10 19 9 9 18 12 8 3 0 7 10 12 12 1 -4 -2 2 4 1 -0 -0
10 10 10 9 9 10 9 9 10 10 9 8 9 7 7 10 12 13 13 12 17 24 24 17 13 14 12 10 14 14 15 19 15 8 11 14 12 15 15 10 7 9 10 8 11 14 10 10 11 11 9 6 10 11 12 14 13 19 16 16 23 6 -2 6 2 10 6 -12 0 12 6 10 10 4 4 6 4 2 11 14 6 -3 -7 -0 6 4 3 2
11 10 11 10 10 12 11 11 10 10 10 9 9 8 9 10 10 10 10 9 11 17 22 22 18 13 9 9 8 2 4 14 15 11 12 11 9 11 14 12 9 9 11 9 10 10 9 11 7 5 8 8 13 15 16 15 17 26 22 14 19 4 -5 5 3 7 11 -8 -10 2 2 0 -1 -2 -3 -5 -8 -8 -1 2 -1 -3 -1 4 7 5 3 1
12 12 12 11 12 13 12 13 12 12 13 12 10 9 9 9 9 9 9 11 12 10 14 20 21 19 13 10 8 3 0 4 7 9 12 10 8 10 10 9 8 7 7 6 9 11 10 10 6 4 7 7 11 12 8 9 14 22 19 15 22 10 -7 -1 3 3 8 4 -5 -4 3 2 -2 -1 -8 -14 -10 -5 0 6 9 9 11 13 11 6 1 1
11 12 12 12 11 12 13 13 12 13 14 14 13 12 12 9 7 7 8 13 17 14 10 8 9 14 13 8 11 13 7 4 6 7 10 11 9 11 10 8 8 7 6 6 9 11 8 7 9 10 9 5 5 6 2 5 13 16 15 16 22 17 -0 -8 -4 -0 4 7 3 -0 4 6 11 18 13 7 12 15 14 18 21 17 13 17 16 9 2 3
11 11 11 12 11 12 13 12 11 13 13 13 14 14 14 12 11 12 13 13 11 12 14 9 2 4 9 10 10 12 12 10 9 7 10 11 10 14 14 10 10 9 8 8 11 13 10 10 11 8 7 8 11 13 6 1 7 13 13 15 22 21 7 -6 -6 -2 -0 3 3 2 1 2 7 17 28 28 21 18 20 21 18 11 7 10 8 5 5 8
12 11 12 12 11 12 12 12 12 13 13 13 14 14 13 14 15 16 18 15 8 7 13 12 7 2 3 9 11 10 9 9 10 8 9 9 8 13 16 11 10 11 11 10 10 13 13 11 9 5 6 11 20 26 16 4 7 15 15 12 19 25 13 -3 -7 -6 -2 0 0 -0 -1 1 -2 -5 11 26 18 7 10 13 9 2 3 8 10 14 21 20
11 11 12 12 12 12 12 12 12 12 12 12 12 12 13 16 18 17 20 24 18 11 5 -0 3 7 3 5 11 11 7 6 7 6 7 9 8 10 13 11 11 11 11 10 9 9 11 12 10 8 8 3 4 15 18 13 10 13 15 9 12 24 20 7 -1 -1 2 -3 -4 2 1 1 0 -11 -8 11 17 7 -1 1 4 2 4 8 9 12 13 10
11 11 12 12 11 12 12 13 13 12 13 12 12 13 14 15 15 15 20 24 14 3 1 -1 4 13 14 11 11 11 10 8 6 4 5 5 6 12 16 12 11 10 9 9 9 7 5 8 10 9 9 3 -1 6 15 17 12 9 14 12 11 18 17 14 14 14 14 8 5 13 10 1 -1 -5 -2 12 20 16 8 3 2 3 5 4 4 7 6 -1
11 11 11 10 10 10 10 11 11 11 11 12 13 14 14 13 13 11 16 20 9 -1 6 12 12 14 13 9 4 7 13 12 10 8 5 3 5 12 15 10 6 8 10 10 9 9 4 1 6 8 9 11 9 10 15 17 13 12 16 13 13 18 15 13 14 10 10 14 16 22 23 16 9 5 8 13 13 14 13 10 8 7 5 1 4 10 8 3
10 9 8 8 8 8 8 8 8 8 9 10 11 12 13 13 12 12 15 19 14 10 11 10 11 9 6 2 -4 2 15 15 15 16 5 1 8 10 8 7 5 7 9 9 7 10 9 4 4 6 7 10 7 3 9 17 14 12 16 10 5 16 20 15 12 9 8 9 8 14 19 17 13 11 10 8 7 8 9 10 11 12 11 12 15 13 9 10
9 8 7 8 9 9 11 11 11 11 10 9 8 9 10 11 12 12 13 16 15 15 11 2 1 1 1 0 -10 -4 13 9 13 25 10 -1 6 9 6 4 4 5 8 8 5 6 8 7 7 6 3 6 6 1 5 14 13 7 12 10 2 7 17 13 6 7 13 13 5 5 11 9 6 7 8 7 6 5 5 6 9 11 12 13 11 7 7 12
9 10 11 14 14 14 15 14 15 15 14 14 12 11 11 8 11 12 12 15 13 15 15 2 -3 0 3 4 -9 -4 13 3 2 21 17 7 6 3 7 10 5 6 8 7 6 5 5 5 8 10 5 3 5 4 3 8 10 7 6 7 3 2 7 12 9 2 6 12 9 6 6 4 5 6 4 4 7 6 3 5 6 6 7 7 6 3 5 9
13 13 13 15 14 14 16 15 15 15 13 14 13 14 15 11 12 12 9 11 9 11 19 11 3 2 6 9 -4 -6 13 10 2 9 13 22 20 2 0 8 6 6 7 6 5 5 5 4 4 8 7 4 5 6 7 8 9 8 5 3 3 3 4 7 10 7 3 4 7 9 6 4 6 7 5 4 6 6 7 9 11 11 9 10 12 11 12 14
14 13 11 13 12 13 14 12 14 14 12 13 12 12 15 15 18 17 14 17 15 12 17 16 10 4 4 13 1 -11 2 9 4 3 5 18 27 14 5 4 3 5 6 7 8 5 4 6 5 3 1 3 4 4 9 14 11 6 4 2 1 6 11 9 5 6 7 6 6 7 7 7 6 5 6 4 4 7 6 6 6 8 10 13 13 11 13 17
12 11 8 10 9 8 9 8 9 11 10 12 13 13 13 12 15 17 17 19 17 13 11 11 12 8 5 10 3 -5 2 3 1 6 6 7 10 9 14 15 10 8 8 9 10 7 4 5 7 5 -1 0 3 2 6 11 10 7 6 5 0 -1 6 10 6 1 3 6 7 6 6 8 9 10 10 6 7 8 6 11 14 7 4 7 5 3 6 9
8 7 6 7 7 8 11 13 14 15 15 12 10 10 12 12 13 13 15 18 16 13 11 8 9 8 6 4 -1 1 6 2 3 6 3 7 6 -2 8 20 12 6 13 16 9 7 6 6 9 9 4 1 1 3 6 7 7 9 7 6 5 -2 -3 5 9 6 4 3 2 4 5 3 4 9 12 15 15 8 9 23 24 10 3 1 -1 0 4 6
5 6 7 8 10 13 17 21 26 29 31 30 24 17 12 12 16 15 13 17 17 12 10 10 7 5 6 5 0 2 6 6 8 2 -9 1 14 8 7 15 12 5 11 18 13 8 5 4 8 10 7 4 1 1 8 10 9 11 9 5 5 3 -1 -0 2 2 5 7 4 3 2 3 6 8 8 10 8 8 21 27 11 2 7 5 1 4 6 7
6 7 10 10 11 14 14 17 22 22 24 28 32 32 25 15 14 19 18 16 16 14 12 11 7 4 7 7 3 2 6 8 8 3 -3 -4 5 15 11 7 13 13 10 12 14 13 9 3 5 9 8 6 1 -3 1 6 8 12 14 6 1 5 6 3 2 -1 -0 5 8 7 6 6 7 6 2 -1 -2 4 15 12 2 3 6 3 3 5 5 7
6 7 13 12 9 10 10 9 10 12 15 17 19 28 36 28 14 12 18 17 15 17 16 11 9 11 9 4 2 2 5 8 2 -3 4 4 0 9 11 5 11 19 17 15 14 17 18 9 3 6 8 8 6 1 -1 2 4 7 14 12 3 2 4 5 6 5 4 8 9 8 8 4 1 4 8 9 8 7 3 -1 5 8 4 9 19 17 13 14
6 8 14 13 7 7 7 4 4 7 13 20 20 18 29 37 24 12 14 16 13 15 19 19 18 18 10 -2 -2 2 3 8 6 -6 -2 11 12 8 7 10 15 20 22 21 17 17 19 16 12 10 9 6 6 7 4 2 2 2 8 15 11 3 -1 1 3 -0 0 8 10 8 7 5 6 7 8 10 10 10 12 14 20 23 19 17 17 16 16 14
6 8 12 13 12 9 6 4 5 4 7 20 28 20 19 31 29 17 14 14 12 11 15 23 28 27 20 7 -1 2 2 3 9 4 -6 4 21 19 6 3 8 15 21 24 23 18 11 11 12 11 15 15 6 6 9 7 7 6 4 8 11 8 4 5 6 1 -2 -0 2 5 7 7 8 3 -1 6 7 3 4 -2 -8 4 14 8 1 5 6 -1
8 7 8 12 18 16 9 6 7 5 5 16 29 30 30 35 32 22 17 16 15 13 9 13 22 27 29 22 9 6 5 1 2 3 -6 -9 7 20 15 7 5 8 13 18 24 22 16 19 18 10 22 34 19 5 7 10 12 12 8 3 -1 -1 2 5 8 10 10 5 -2 -2 2 5 10 8 2 7 11 6 0 -8 -13 -8 -6 -10 -7 1 3 1
8 8 6 9 17 19 16 14 9 4 7 18 29 34 35 38 37 30 22 17 14 14 14 14 16 18 25 32 27 15 8 4 0 -1 -4 -9 -8 -0 7 12 12 5 -1 2 15 20 18 26 29 14 10 25 30 18 7 14 23 19 14 14 6 1 2 2 4 11 18 17 7 2 3 4 8 11 5 5 12 15 14 11 11 8 2 1 8 9 9 10
8 8 7 7 11 14 18 22 18 6 7 20 30 29 22 22 31 34 29 22 12 5 13 24 23 17 20 34 42 29 12 8 6 2 -1 -3 -5 -8 -11 -5 5 8 4 0 3 11 17 23 27 21 10 13 32 33 12 15 32 23 12 16 14 12 12 6 6 15 18 14 7 4 4 -0 -3 0 -0 -3 -4 -4 3 14 15 11 11 11 9 7 7 7
9 8 8 8 8 9 13 23 26 10 3 17 29 25 14 8 14 21 23 25 19 6 3 10 14 16 18 25 33 31 21 15 13 13 13 11 11 10 0 -8 -8 -1 7 8 -2 -4 10 21 19 18 17 14 24 31 18 15 26 19 8 11 11 10 11 8 8 18 25 23 15 12 14 9 0 -4 -6 -1 5 4 8 14 13 13 14 8 -1 -2 2 7
Height
5763 5763 5764 5764 5765 5765 5765 5766 5766 5766 5767 5767 5768 5768 5769 5770 5770 5771 5771 5771 5771 5772 5772 5772 5772 5773 5773 5773 5773 5773 5773 5772 5771 5771 5771 5770 5770 5770 5770 5770 5770 5770 5770 5770 5770 5771 5771 5772 5772 5773 5774 5775 5777 5778 5779 5780 5781 5782 5785 5789 5793 5796 5798 5798 5798 5800 5801 5800 5799 5800 5802 5803 5803 5804 5805 5806 5806 5808 5808 5809 5812 5814 5815 5816 5815 5815 5816 5816
5759 5760 5760 5761 5761 5762 5762 5762 5763 5763 5763 5764 5764 5765 5766 5766 5767 5767 5768 5768 5768 5768 5769 5769 5769 5769 5770 5770 5770 5770 5769 5769 5768 5768 5768 5767 5767 5767 5767 5767 5767 5767 5767 5767 5767 5768 5768 5769 5769 5770 5772 5773 5774 5775 5776 5777 5778 5780 5783 5786 5791 5795 5795 5794 5795 5797 5797 5796 5796 5795 5798 5800 5800 5800 5802 5803 5804 5805 5805 5807 5811 5812 5813 5813 5813 5813 5814 5814
5756 5756 5757 5757 5758 5758 5759 5759 5759 5760 5760 5761 5761 5762 5762 5763 5764 5764 5764 5765 5765 5765 5765 5766 5766 5766 5767 5767 5767 5766 5766 5765 5764 5764 5764 5764 5764 5764 5764 5764 5764 5764 5764 5764 5765 5765 5765 5766 5767 5768 5769 5770 5771 5772 5773 5774 5775 5777 5780 5784 5789 5792 5792 5792 5792 5793 5793 5793 5793 5792 5793 5797 5797 5797 5799 5801 5802 5802 5802 5805 5809 5810 5810 5811 5811 5811 5812 5812
5753 5753 5753 5754 5754 5755 5755 5756 5756 5756 5757 5757 5758 5758 5759 5760 5760 5761 5761 5761 5762 5762 5762 5763 5763 5763 5763 5763 5763 5763 5762 5761 5761 5761 5761 5761 5761 5761 5761 5761 5761 5761 5761 5762 5762 5762 5763 5764 5765 5766 5767 5768 5769 5769 5771 5772 5773 5775 5777 5782 5786 5787 5788 5789 5789 5789 5790 5790 5791 5790 5790 5793 5795 5795 5796 5798 5799 5799 5800 5804 5806 5807 5808 5808 5808 5809 5809 5810
5749 5749 5750 5750 5751 5751 5752 5752 5752 5753 5753 5754 5755 5755 5756 5756 5757 5758 5758 5758 5759 5759 5759 5759 5760 5760 5760 5760 5760 5759 5759 5757 5758 5758 5758 5758 5758 5758 5758 5758 5758 5758 5759 5759 5759 5760 5760 5761 5762 5763 5765 5766 5766 5767 5770 5771 5771 5773 5775 5780 5783 5784 5785 5785 5785 5786 5786 5787 5787 5787 5789 5792 5793 5794 5794 5795 5796 5796 5799 5802 5803 5803 5805 5806 5806 5805 5806 5808
5745 5746 5746 5747 5747 5748 5748 5748 5749 5749 5750 5751 5751 5752 5753 5753 5754 5754 5755 5755 5755 5756 5756 5756 5756 5756 5757 5757 5756 5756 5755 5754 5755 5755 5755 5754 5754 5754 5755 5755 5755 5756 5756 5757 5757 5757 5758 5759 5760 5761 5763 5763 5764 5766 5768 5768 5768 5770 5773 5777 5779 5781 5782 5782 5782 5782 5783 5784 5784 5784 5787 5790 5792 5792 5792 5793 5793 5794 5798 5800 5801 5801 5802 5803 5804 5803 5804 5805
5742 5742 5743 5743 5744 5744 5745 5745 5746 5746 5747 5747 5748 5749 5749 5750 5750 5751 5751 5752 5752 5753 5753 5753 5753 5753 5753 5753 5753 5752 5751 5751 5752 5752 5752 5751 5751 5751 5752 5752 5753 5753 5754 5754 5755 5755 5756 5757 5758 5759 5760 5761 5762 5764 5765 5765 5765 5767 5770 5774 5776 5779 5780 5779 5779 5780 5779 5780 5781 5781 5783 5787 5790 5790 5790 5791 5792 5794 5796 5798 5800 5800 5800 5801 5801 5802 5802 5803
5738 5739 5739 5740 5740 5741 5741 5742 5742 5743 5743 5744 5744 5745 5746 5746 5747 5747 5748 5749 5749 5749 5749 5749 5749 5749 5750 5750 5749 5749 5748 5748 5748 5748 5748 5748 5748 5749 5749 5750 5751 5751 5752 5752 5753 5753 5754 5755 5756 5757 5758 5759 5760 5761 5762 5762 5762 5765 5768 5771 5774 5776 5776 5776 5777 5777 5777 5777 5778 5779 5780 5782 5785 5786 5787 5789 5790 5792 5794 5797 5798 5799 5798 5798 5799 5800 5800 5801
5735 5735 5736 5736 5737 5737 5738 5738 5739 5739 5740 5740 5741 5741 5742 5742 5743 5744 5745 5745 5746 5746 5746 5746 5746 5746 5746 5746 5746 5745 5744 5745 5745 5745 5745 5745 5745 5745 5746 5747 5748 5749 5750 5750 5751 5752 5753 5753 5753 5754 5755 5756 5757 5758 5759 5759 5760 5763 5766 5767 5770 5773 5773 5773 5774 5774 5775 5775 5776 5776 5777 5779 5780 5782 5784 5786 5788 5790 5791 5794 5796 5796 5797 5797 5797 5798 5798 5799
5731 5731 5732 5732 5733 5733 5734 5734 5735 5735 5736 5736 5737 5737 5738 5739 5740 5741 5741 5742 5742 5743 5743 5742 5743 5743 5743 5743 5743 5741 5741 5742 5741 5742 5742 5742 5743 5743 5743 5745 5745 5746 5747 5748 5749 5750 5750 5750 5751 5751 5752 5753 5754 5756 5756 5757 5759 5761 5762 5763 5766 5768 5769 5769 5770 5771 5772 5773 5774 5774 5775 5777 5778 5779 5781 5784 5787 5789 5789 5791 5792 5794 5795 5795 5795 5796 5796 5797
5727 5728 5728 5729 5729 5730 5730 5731 5731 5732 5732 5732 5733 5734 5734 5735 5736 5737 5738 5738 5739 5739 5739 5739 5739 5739 5739 5739 5739 5738 5738 5739 5739 5739 5739 5739 5740 5740 5741 5742 5743 5744 5745 5746 5747 5747 5748 5748 5748 5748 5750 5751 5752 5753 5754 5755 5757 5758 5759 5761 5763 5766 5767 5767 5767 5768 5769 5770 5771 5772 5773 5775 5777 5779 5781 5784 5785 5786 5787 5788 5790 5791 5792 5792 5792 5793 5794 5795
5723 5724 5724 5725 5725 5726 5726 5727 5727 5727 5728 5728 5729 5730 5730 5731 5732 5733 5734 5734 5735 5735 5735 5735 5736 5736 5736 5735 5735 5735 5735 5736 5735 5736 5736 5736 5737 5737 5738 5740 5741 5741 5742 5744 5744 5745 5745 5745 5745 5747 5748 5749 5750 5751 5752 5753 5754 5755 5756 5758 5761 5763 5765 5766 5766 5766 5766 5767 5768 5770 5771 5773 5777 5780 5782 5781 5781 5784 5785 5786 5787 5789 5789 5790 5790 5791 5791 5793
5719 5720 5720 5721 5721 5722 5722 5723 5723 5724 5724 5724 5725 5726 5726 5727 5728 5729 5730 5730 5731 5731 5731 5732 5732 5732 5732 5731 5731 5732 5732 5732 5732 5733 5733 5733 5734 5734 5735 5737 5738 5739 5740 5741 5742 5742 5742 5743 5743 5745 5746 5747 5748 5749 5750 5751 5752 5754 5754 5756 5759 5760 5763 5765 5766 5766 5766 5766 5767 5768 5768 5770 5776 5781 5782 5779 5778 5781 5782 5783 5785 5786 5787 5788 5788 5788 5790 5792
5716 5716 5716 5717 5717 5718 5718 5719 5719 5720 5720 5720 5721 5721 5722 5723 5724 5725 5726 5726 5727 5727 5728 5729 5729 5729 5729 5727 5728 5729 5729 5729 5729 5729 5729 5730 5730 5730 5732 5734 5734 5736 5737 5738 5739 5740 5740 5740 5741 5743 5744 5745 5746 5747 5748 5749 5750 5752 5752 5754 5756 5758 5762 5765 5765 5765 5765 5765 5765 5766 5766 5769 5775 5779 5781 5778 5776 5778 5780 5781 5783 5784 5785 5785 5785 5786 5788 5790
5712 5712 5713 5713 5714 5714 5714 5715 5715 5716 5716 5716 5717 5717 5718 5719 5719 5720 5722 5722 5723 5723 5724 5725 5725 5725 5725 5724 5725 5726 5725 5725 5725 5725 5726 5727 5728 5727 5729 5731 5732 5733 5734 5735 5736 5737 5738 5738 5739 5740 5741 5742 5744 5745 5746 5747 5748 5749 5750 5752 5754 5757 5760 5763 5763 5764 5765 5765 5765 5765 5765 5768 5774 5777 5779 5777 5774 5775 5777 5778 5780 5782 5783 5783 5783 5785 5786 5787
5708 5709 5709 5709 5710 5710 5710 5711 5711 5711 5712 5712 5713 5713 5714 5714 5715 5716 5717 5718 5719 5720 5721 5722 5722 5722 5722 5721 5722 5722 5721 5722 5721 5721 5723 5724 5725 5724 5726 5728 5729 5730 5731 5732 5733 5734 5735 5736 5737 5738 5738 5739 5741 5742 5743 5744 5746 5748 5749 5751 5753 5754 5757 5760 5761 5763 5765 5766 5765 5764 5765 5767 5772 5776 5776 5774 5772 5773 5775 5776 5778 5780 5780 5781 5782 5782 5783 5785
5705 5705 5705 5706 5706 5706 5707 5707 5707 5707 5708 5708 5709 5709 5710 5710 5711 5712 5713 5714 5715 5716 5718 5719 5718 5719 5719 5718 5719 5718 5718 5718 5718 5718 5719 5720 5721 5721 5723 5725 5726 5727 5728 5729 5730 5731 5732 5733 5734 5735 5736 5737 5739 5740 5741 5742 5745 5747 5747 5749 5751 5752 5753 5756 5758 5760 5761 5763 5763 5762 5763 5765 5770 5773 5773 5771 5770 5770 5772 5774 5776 5777 5777 5779 5779 5780 5782 5784
5701 5701 5701 5702 5702 5703 5703 5703 5703 5703 5704 5704 5704 5705 5706 5706 5707 5708 5709 5710 5711 5712 5714 5715 5715 5715 5715 5715 5715 5715 5715 5715 5715 5715 5715 5716 5717 5719 5720 5722 5723 5724 5725 5726 5727 5728 5729 5730 5731 5732 5734 5736 5737 5738 5739 5742 5744 5744 5745 5746 5747 5748 5748 5751 5754 5755 5756 5757 5758 5759 5760 5763 5767 5770 5770 5769 5767 5767 5769 5771 5772 5774 5774 5776 5777 5778 5781 5782
5697 5697 5697 5698 5699 5699 5699 5699 5699 5700 5700 5700 5700 5701 5701 5702 5703 5704 5705 5707 5707 5708 5710 5711 5712 5712 5712 5712 5712 5712 5712 5712 5712 5712 5712 5713 5714 5716 5718 5719 5720 5722 5723 5724 5725 5725 5726 5727 5728 5731 5733 5735 5735 5736 5738 5740 5740 5740 5741 5742 5743 5744 5745 5748 5750 5751 5752 5752 5754 5756 5758 5761 5764 5766 5766 5767 5766 5765 5766 5767 5768 5770 5770 5772 5774 5776 5779 5780
5693 5693 5694 5694 5695 5695 5696 5696 5696 5696 5696 5696 5696 5697 5697 5698 5699 5700 5702 5703 5704 5705 5706 5707 5708 5709 5708 5709 5709 5709 5709 5709 5709 5709 5710 5710 5711 5713 5715 5717 5718 5719 5721 5722 5722 5723 5723 5725 5727 5730 5732 5732 5732 5733 5735 5736 5737 5737 5738 5739 5740 5742 5744 5747 5748 5749 5748 5748 5750 5753 5756 5759 5761 5762 5763 5764 5764 5763 5763 5763 5765 5767 5768 5770 5772 5774 5776 5778
5690 5690 5691 5691 5691 5692 5692 5692 5692 5692 5692 5692 5692 5692 5693 5694 5695 5696 5698 5700 5700 5701 5703 5704 5705 5706 5705 5705 5706 5706 5706 5707 5707 5707 5707 5708 5709 5710 5713 5714 5716 5718 5719 5719 5719 5720 5721 5723 5726 5728 5728 5729 5729 5731 5732 5733 5734 5735 5735 5737 5738 5740 5743 5745 5745 5746 5745 5745 5748 5751 5753 5755 5757 5759 5761 5762 5763 5762 5760 5761 5763 5765 5766 5768 5769 5771 5774 5776
5686 5687 5687 5688 5688 5688 5688 5688 5689 5689 5689 5688 5688 5689 5690 5691 5691 5693 5695 5697 5698 5698 5699 5700 5702 5703 5702 5701 5703 5703 5704 5705 5705 5705 5705 5705 5707 5708 5710 5712 5713 5715 5716 5716 5717 5718 5720 5722 5724 5725 5725 5725 5727 5728 5730 5731 5731 5732 5733 5734 5736 5738 5742 5743 5743 5743 5743 5743 5747 5749 5750 5753 5755 5757 5759 5760 5761 5761 5759 5760 5761 5762 5764 5765 5767 5770 5772 5774
5683 5683 5684 5684 5684 5684 5685 5685 5685 5685 5685 5685 5685 5686 5686 5687 5688 5690 5691 5693 5695 5694 5695 5696 5698 5700 5700 5699 5699 5700 5701 5703 5703 5703 5703 5704 5705 5705 5707 5709 5711 5712 5713 5714 5715 5717 5718 5720 5721 5721 5722 5723 5725 5726 5727 5728 5729 5730 5731 5732 5734 5737 5739 5740 5741 5741 5741 5742 5745 5747 5749 5751 5752 5755 5757 5757 5758 5759 5759 5759 5760 5761 5761 5763 5766 5768 5770 5772
5679 5680 5680 5680 5681 5681 5681 5682 5682 5682 5682 5682 5682 5683 5683 5684 5684 5686 5686 5688 5691 5691 5691 5692 5695 5697 5698 5696 5695 5697 5699 5700 5700 5701 5700 5701 5702 5702 5704 5707 5708 5709 5711 5712 5713 5715 5715 5716 5718 5718 5720 5721 5722 5723 5725 5726 5727 5728 5729 5730 5733 5735 5736 5738 5738 5739 5740 5741 5744 5746 5747 5748 5749 5752 5755 5755 5756 5757 5757 5757 5758 5759 5760 5762 5765 5767 5768 5770
5676 5676 5677 5677 5677 5678 5678 5678 5678 5679 5679 5679 5679 5680 5680 5680 5681 5682 5683 5683 5686 5688 5687 5688 5692 5694 5694 5693 5694 5695 5696 5697 5698 5698 5698 5699 5700 5701 5702 5705 5706 5708 5709 5710 5711 5713 5713 5714 5716 5717 5718 5719 5720 5721 5723 5724 5725 5726 5727 5729 5731 5732 5733 5735 5736 5737 5738 5739 5742 5744 5744 5745 5747 5750 5752 5753 5754 5755 5755 5754 5755 5757 5758 5761 5764 5766 5767 5769
5672 5673 5673 5674 5674 5674 5674 5675 5675 5676 5676 5676 5677 5678 5677 5677 5678 5679 5679 5680 5682 5685 5685 5686 5689 5690 5691 5691 5692 5692 5693 5695 5695 5695 5696 5697 5697 5698 5700 5702 5704 5706 5706 5707 5709 5710 5710 5712 5713 5714 5715 5717 5718 5719 5720 5721 5723 5724 5726 5728 5729 5730 5731 5733 5734 5735 5736 5737 5738 5740 5742 5743 5746 5748 5749 5751 5753 5753 5753 5753 5754 5755 5758 5760 5762 5764 5766 5767
5669 5669 5670 5671 5671 5671 5671 5671 5672 5673 5674 5674 5674 5675 5673 5674 5675 5676 5677 5677 5679 5681 5682 5683 5685 5687 5688 5688 5689 5690 5690 5691 5692 5692 5695 5695 5695 5696 5698 5700 5702 5703 5703 5704 5706 5708 5708 5710 5711 5712 5713 5715 5716 5717 5718 5719 5721 5722 5725 5727 5727 5728 5729 5730 5731 5733 5735 5735 5736 5737 5740 5742 5744 5746 5747 5749 5750 5750 5751 5752 5753 5755 5757 5759 5761 5763 5764 5765
5666 5666 5666 5667 5668 5667 5667 5668 5669 5670 5670 5671 5671 5671 5670 5672 5673 5673 5674 5675 5676 5678 5679 5680 5682 5684 5684 5685 5687 5688 5687 5688 5689 5690 5693 5693 5692 5694 5696 5699 5700 5700 5701 5702 5705 5706 5706 5708 5709 5710 5711 5712 5714 5716 5716 5717 5719 5720 5722 5724 5725 5726 5727 5728 5729 5731 5733 5733 5734 5735 5737 5741 5743 5744 5745 5747 5748 5748 5750 5751 5752 5754 5756 5758 5759 5760 5762 5762
5663 5663 5663 5664 5664 5664 5664 5665 5666 5666 5667 5668 5668 5668 5668 5669 5670 5671 5671 5673 5674 5676 5677 5678 5679 5681 5681 5683 5685 5686 5686 5687 5687 5687 5690 5690 5690 5692 5694 5696 5697 5697 5698 5700 5703 5703 5704 5706 5706 5707 5709 5710 5712 5714 5715 5715 5717 5718 5719 5721 5723 5724 5725 5727 5728 5730 5731 5731 5733 5734 5735 5738 5741 5742 5743 5744 5745 5746 5748 5749 5751 5753 5754 5755 5757 5758 5760 5761
5660 5660 5660 5660 5661 5661 5661 5662 5662 5663 5664 5664 5664 5665 5666 5667 5667 5668 5669 5671 5673 5674 5675 5676 5677 5678 5679 5680 5683 5683 5684 5685 5684 5685 5688 5688 5688 5690 5692 5693 5693 5694 5695 5697 5700 5701 5702 5703 5703 5705 5707 5708 5710 5711 5712 5713 5715 5716 5717 5719 5721 5722 5723 5725 5727 5728 5729 5729 5731 5733 5734 5736 5739 5740 5741 5742 5743 5744 5746 5747 5749 5751 5752 5753 5754 5757 5758 5759
5657 5657 5657 5657 5657 5657 5658 5658 5659 5659 5661 5661 5661 5662 5663 5663 5664 5665 5667 5670 5671 5671 5672 5673 5674 5675 5676 5677 5680 5681 5681 5682 5682 5683 5685 5686 5686 5688 5689 5690 5691 5692 5693 5695 5697 5699 5700 5701 5702 5703 5705 5706 5708 5709 5711 5712 5713 5714 5715 5717 5719 5720 5722 5723 5725 5726 5727 5728 5730 5732 5733 5734 5737 5739 5740 5740 5740 5742 5743 5745 5747 5749 5751 5752 5754 5755 5756 5756
5654 5654 5654 5654 5654 5654 5655 5655 5656 5656 5658 5658 5658 5659 5659 5660 5661 5663 5666 5667 5668 5669 5669 5669 5670 5671 5673 5674 5676 5678 5678 5679 5679 5680 5683 5684 5684 5686 5687 5688 5689 5690 5692 5693 5695 5697 5698 5699 5700 5702 5703 5705 5706 5708 5709 5710 5712 5713 5714 5715 5717 5718 5720 5722 5723 5724 5725 5727 5729 5731 5732 5733 5734 5736 5737 5738 5738 5739 5741 5742 5745 5746 5748 5750 5751 5752 5753 5754
5651 5651 5651 5651 5651 5651 5652 5653 5653 5653 5654 5655 5655 5656 5656 5657 5659 5661 5663 5664 5665 5666 5666 5665 5667 5668 5668 5670 5672 5674 5675 5676 5676 5677 5679 5681 5682 5683 5685 5685 5686 5688 5690 5691 5693 5694 5696 5697 5698 5700 5701 5703 5705 5706 5707 5709 5711 5711 5712 5713 5715 5716 5718 5719 5721 5722 5724 5726 5727 5729 5730 5731 5732 5733 5735 5736 5737 5738 5739 5741 5742 5743 5744 5746 5748 5749 5751 5751
5648 5648 5648 5648 5648 5649 5649 5650 5650 5650 5651 5652 5652 5652 5653 5655 5657 5658 5659 5661 5662 5662 5661 5662 5664 5665 5666 5667 5669 5670 5672 5673 5674 5674 5676 5677 5679 5681 5682 5683 5684 5686 5688 5688 5690 5692 5693 5695 5696 5698 5701 5702 5704 5705 5706 5708 5709 5710 5711 5711 5712 5714 5716 5718 5719 5721 5722 5724 5726 5727 5728 5727 5729 5731 5733 5735 5737 5737 5737 5739 5740 5741 5742 5744 5746 5747 5748 5748
5646 5646 5646 5646 5646 5646 5647 5647 5647 5648 5648 5649 5649 5650 5651 5653 5654 5654 5656 5657 5657 5656 5657 5659 5662 5663 5663 5664 5666 5667 5669 5670 5671 5671 5671 5673 5676 5679 5680 5681 5682 5684 5685 5686 5687 5689 5691 5693 5695 5697 5699 5701 5703 5704 5705 5706 5707 5708 5709 5710 5711 5713 5715 5717 5718 5719 5720 5722 5724 5725 5724 5724 5726 5728 5730 5733 5734 5735 5736 5737 5738 5740 5741 5743 5744 5745 5745 5746
5644 5644 5644 5644 5643 5644 5644 5645 5645 5645 5645 5645 5646 5647 5648 5649 5650 5651 5652 5652 5652 5653 5655 5657 5659 5660 5660 5661 5663 5665 5666 5667 5668 5668 5668 5670 5673 5675 5677 5678 5679 5681 5682 5684 5686 5687 5688 5691 5694 5696 5697 5699 5701 5702 5703 5704 5705 5706 5707 5708 5710 5712 5713 5715 5716 5717 5719 5720 5721 5721 5721 5722 5724 5726 5728 5730 5732 5733 5734 5735 5736 5737 5738 5740 5742 5742 5743 5744
5642 5642 5641 5641 5641 5641 5641 5642 5642 5642 5642 5642 5643 5644 5645 5645 5646 5647 5648 5649 5650 5651 5653 5655 5656 5657 5657 5657 5659 5661 5662 5663 5664 5665 5666 5666 5669 5671 5673 5675 5676 5677 5678 5680 5683 5685 5686 5689 5692 5693 5695 5696 5698 5699 5700 5702 5703 5704 5706 5707 5708 5709 5710 5711 5713 5714 5716 5717 5718 5718 5719 5720 5721 5724 5726 5728 5729 5730 5731 5732 5733 5734 5735 5738 5740 5741 5741 5742
5640 5639 5639 5639 5639 5638 5638 5638 5638 5639 5639 5639 5639 5640 5641 5641 5641 5643 5644 5645 5646 5647 5649 5651 5652 5653 5653 5654 5655 5656 5657 5659 5660 5662 5663 5663 5665 5668 5670 5672 5674 5675 5676 5677 5679 5682 5684 5686 5689 5691 5692 5694 5695 5696 5697 5698 5700 5702 5703 5704 5705 5707 5708 5709 5710 5711 5712 5714 5715 5716 5717 5717 5718 5720 5723 5725 5727 5728 5728 5729 5730 5731 5733 5735 5738 5739 5739 5740
5638 5637 5636 5636 5636 5635 5635 5635 5635 5635 5635 5636 5636 5636 5637 5637 5638 5638 5640 5640 5642 5642 5645 5647 5648 5648 5650 5651 5652 5653 5654 5655 5656 5658 5660 5661 5662 5665 5667 5669 5671 5673 5674 5675 5677 5679 5681 5683 5686 5688 5690 5691 5692 5693 5694 5695 5697 5699 5700 5700 5702 5704 5705 5706 5708 5709 5711 5712 5713 5714 5715 5714 5715 5718 5720 5722 5724 5724 5725 5726 5727 5728 5730 5732 5734 5735 5736 5736
5635 5635 5635 5634 5633 5633 5632 5632 5632 5632 5632 5632 5632 5633 5633 5634 5634 5635 5635 5636 5637 5638 5641 5643 5643 5644 5646 5648 5649 5650 5650 5652 5653 5655 5656 5658 5659 5662 5664 5667 5668 5670 5672 5673 5674 5676 5678 5680 5684 5687 5687 5688 5689 5690 5692 5693 5694 5696 5697 5698 5700 5701 5702 5704 5705 5707 5708 5710 5711 5712 5713 5712 5713 5716 5718 5720 5721 5721 5722 5723 5723 5725 5727 5729 5730 5731 5731 5731
5633 5633 5632 5632 5632 5631 5631 5630 5629 5629 5629 5629 5629 5629 5630 5631 5631 5632 5632 5633 5634 5635 5637 5639 5639 5640 5642 5644 5646 5647 5647 5648 5650 5652 5654 5655 5657 5659 5661 5663 5665 5667 5670 5671 5672 5673 5675 5677 5681 5685 5685 5686 5686 5687 5689 5691 5692 5693 5695 5696 5697 5699 5700 5702 5703 5704 5706 5707 5709 5710 5711 5711 5712 5714 5716 5718 5719 5719 5720 5722 5721 5721 5724 5726 5727 5728 5728 5729
5631 5631 5630 5630 5629 5629 5628 5628 5627 5627 5626 5625 5625 5625 5626 5627 5627 5628 5628 5630 5631 5631 5632 5633 5634 5636 5638 5640 5642 5644 5645 5647 5648 5650 5651 5652 5653 5655 5657 5659 5661 5663 5666 5668 5669 5671 5672 5674 5677 5682 5683 5682 5683 5684 5686 5689 5689 5690 5692 5693 5695 5697 5698 5700 5701 5702 5704 5705 5707 5708 5709 5709 5710 5712 5714 5716 5717 5717 5719 5720 5720 5720 5722 5723 5724 5725 5725 5727
5630 5629 5629 5628 5627 5626 5625 5624 5623 5622 5621 5621 5621 5620 5621 5622 5623 5623 5624 5626 5626 5626 5627 5628 5629 5631 5633 5636 5640 5641 5642 5644 5645 5647 5649 5650 5651 5652 5653 5655 5658 5660 5662 5664 5666 5668 5670 5671 5674 5678 5680 5680 5680 5681 5683 5686 5687 5688 5689 5690 5692 5694 5696 5697 5699 5700 5702 5703 5704 5706 5707 5708 5709 5710 5711 5713 5715 5716 5716 5717 5718 5718 5719 5720 5721 5722 5723 5724
5628 5627 5627 5626 5625 5623 5622 5620 5618 5617 5616 5616 5616 5615 5616 5617 5618 5619 5620 5621 5621 5621 5623 5624 5625 5627 5630 5634 5637 5638 5639 5641 5642 5645 5647 5647 5648 5650 5650 5652 5654 5656 5658 5661 5663 5665 5667 5669 5671 5674 5677 5677 5677 5678 5679 5682 5684 5686 5686 5688 5690 5691 5693 5694 5696 5698 5699 5700 5701 5703 5704 5705 5707 5708 5709 5711 5712 5713 5714 5715 5716 5717 5717 5718 5719 5720 5721 5722
5627 5626 5625 5623 5622 5621 5619 5617 5616 5614 5613 5612 5611 5611 5612 5613 5613 5615 5616 5616 5616 5618 5619 5620 5621 5624 5628 5632 5634 5634 5635 5637 5640 5643 5644 5644 5645 5647 5648 5649 5651 5653 5656 5658 5660 5661 5663 5665 5668 5670 5672 5673 5674 5675 5676 5678 5681 5683 5684 5685 5687 5688 5690 5692 5694 5695 5696 5698 5699 5700 5701 5703 5704 5705 5707 5709 5710 5711 5713 5713 5714 5714 5715 5715 5717 5718 5719 5719
5625 5624 5623 5621 5620 5618 5617 5616 5614 5613 5611 5610 5608 5608 5608 5609 5609 5611 5612 5612 5612 5614 5615 5617 5620 5623 5626 5630 5632 5632 5632 5635 5638 5641 5641 5641 5643 5645 5645 5646 5648 5651 5653 5655 5657 5658 5659 5661 5663 5666 5668 5670 5671 5671 5672 5674 5677 5679 5681 5683 5684 5686 5687 5689 5691 5692 5694 5696 5697 5698 5699 5701 5702 5703 5704 5706 5708 5709 5711 5711 5711 5711 5713 5713 5714 5715 5716 5717
5623 5622 5621 5619 5618 5617 5615 5614 5613 5611 5609 5607 5606 5604 5604 5605 5605 5607 5608 5608 5609 5611 5613 5615 5619 5622 5625 5628 5630 5630 5631 5634 5637 5638 5638 5639 5641 5643 5643 5645 5647 5649 5651 5653 5654 5655 5656 5658 5660 5662 5665 5666 5667 5668 5669 5671 5673 5675 5677 5679 5681 5683 5684 5686 5688 5689 5691 5693 5694 5695 5697 5698 5699 5701 5702 5704 5705 5707 5708 5708 5708 5709 5710 5711 5712 5713 5714 5715
5622 5621 5619 5617 5616 5614 5613 5612 5610 5609 5607 5605 5603 5601 5600 5601 5601 5603 5604 5605 5607 5609 5611 5613 5616 5620 5623 5626 5627 5627 5629 5632 5634 5635 5636 5638 5639 5640 5641 5643 5645 5646 5648 5649 5651 5652 5654 5655 5657 5659 5661 5661 5662 5664 5666 5668 5669 5670 5672 5674 5677 5679 5681 5683 5685 5686 5688 5689 5690 5691 5694 5696 5697 5699 5701 5702 5703 5704 5705 5706 5706 5707 5708 5709 5711 5712 5712 5713
5621 5619 5617 5616 5614 5612 5611 5610 5608 5607 5605 5602 5600 5598 5596 5597 5597 5599 5600 5603 5605 5607 5609 5611 5614 5617 5620 5622 5624 5625 5627 5629 5631 5632 5634 5636 5637 5638 5640 5641 5643 5644 5646 5647 5648 5649 5651 5652 5654 5656 5656 5656 5658 5660 5662 5664 5665 5666 5668 5670 5673 5676 5678 5680 5682 5684 5685 5686 5687 5688 5690 5692 5694 5696 5698 5699 5701 5702 5703 5704 5705 5705 5706 5707 5708 5709 5710 5711
5620 5618 5616 5615 5613 5611 5609 5608 5607 5605 5603 5600 5598 5595 5594 5594 5595 5596 5599 5601 5604 5606 5608 5609 5611 5614 5616 5618 5620 5622 5624 5626 5628 5630 5632 5634 5635 5637 5638 5639 5641 5642 5643 5644 5645 5647 5648 5649 5651 5653 5653 5654 5656 5658 5658 5660 5661 5663 5664 5666 5669 5672 5674 5677 5679 5680 5682 5684 5685 5686 5687 5689 5691 5693 5694 5696 5697 5699 5700 5701 5702 5702 5703 5704 5705 5705 5706 5708
5618 5617 5616 5614 5613 5611 5608 5606 5605 5604 5602 5600 5597 5595 5594 5594 5594 5596 5597 5599 5602 5604 5605 5606 5608 5610 5612 5614 5616 5618 5621 5624 5626 5627 5629 5631 5633 5635 5636 5637 5638 5639 5640 5642 5644 5645 5646 5647 5649 5650 5651 5652 5654 5655 5655 5657 5658 5658 5660 5663 5666 5668 5671 5673 5675 5677 5679 5680 5682 5684 5684 5686 5688 5690 5691 5693 5694 5695 5696 5696 5698 5699 5700 5701 5702 5703 5704 5705
5617 5616 5615 5613 5612 5610 5608 5606 5604 5603 5602 5600 5597 5596 5595 5594 5595 5595 5596 5598 5600 5602 5603 5604 5606 5607 5608 5610 5612 5614 5617 5620 5623 5624 5627 5629 5631 5632 5633 5633 5635 5636 5638 5639 5641 5643 5644 5645 5647 5648 5649 5650 5651 5652 5653 5653 5654 5655 5657 5660 5663 5665 5667 5670 5672 5674 5675 5677 5679 5680 5681 5683 5685 5687 5689 5690 5690 5691 5693 5693 5694 5696 5697 5698 5699 5700 5701 5702